Hutchinson, MN

4:28 PM CDT on April 30, 2017 (GMT -0500)
Hutchinson Municipal-Butler

Weather History for KHCD - October, 2011

Change the Weather History Date:

Thursday, October 13, 2011

  Actual Average Record
Temperature  
Mean Temperature 56 °F -  
Max Temperature 62 °F 58 °F 82 °F (1975)
Min Temperature 49 °F 37 °F 1 °F (2003)
Degree Days  
Heating Degree Days 10    
Growing Degree Days 6 (Base 50)    
Moisture  
Dew Point 47 °F    
Average Humidity 76    
Maximum Humidity 96    
Minimum Humidity 43    
Precipitation  
Precipitation 0.00 in - - ()
Sea Level Pressure  
Sea Level Pressure 29.67 in    
Wind  
Wind Speed 8 mph (WNW)    
Max Wind Speed 21 mph    
Max Gust Speed 26 mph    
Visibility 9 miles    
Events      
Averages and records for this station are not official NWS values.
T = Trace of Precipitation, MM = Missing Value Source: NWS Daily Summary

Daily Weather History Graph

Daily Weather History Graph

Search for Another Location

Airport or City:

Trip Planner

Search our weather history database for the weather conditions in past years. The results will help you decide how hot, cold, wet, or windy it might be!

Date:

Astronomy

Oct. 13, 2011 Rise Set
Actual Time 7:30 AM CDT 6:36 PM CDT
Civil Twilight 7:00 AM CDT 7:06 PM CDT
Nautical Twilight 6:26 AM CDT 7:39 PM CDT
Astronomical Twilight 5:52 AM CDT 8:13 PM CDT
Moon 7:05 PM CDT (10/13) 9:09 AM CDT (10/13)
Length of Visible Light 12h 05m
Length of Day
11h 06m
Full, 98% of the Moon is Illuminated
Oct 13
Full
Oct 19
Last Quarter
Oct 26
New
Nov 2
First Quarter
Nov 10
Full

Hourly Weather History & Observations

Time (CDT) Temp. Dew Point Humidity Pressure Visibility Wind Dir Wind Speed Gust Speed Precip Events Conditions
12:13 AM 54.5 °F 53.1 °F 95% 29.68 in 3.0 mi Calm Calm - N/A   Mostly Cloudy
12:32 AM 54.5 °F 53.1 °F 95% 29.68 in 1.0 mi Calm Calm - N/A   Mist
12:53 AM 52.9 °F 51.8 °F 96% 29.67 in 3.0 mi West 4.6 mph - N/A   Clear
1:13 AM 52.0 °F 50.9 °F 96% 29.67 in 4.0 mi West 3.5 mph - N/A   Clear
1:32 AM 53.1 °F 51.8 °F 95% 29.67 in 5.0 mi West 6.9 mph - N/A   Clear
1:53 AM 54.5 °F 53.2 °F 96% 29.67 in 7.0 mi West 5.8 mph - N/A   Clear
2:13 AM 54.5 °F 53.2 °F 96% 29.66 in 10.0 mi West 5.8 mph - N/A   Clear
2:32 AM 54.5 °F 53.2 °F 96% 29.66 in 7.0 mi West 5.8 mph - N/A   Clear
2:52 AM 52.0 °F 50.9 °F 96% 29.66 in 10.0 mi West 4.6 mph - N/A   Clear
3:13 AM 52.0 °F 50.5 °F 95% 29.66 in 10.0 mi West 6.9 mph - N/A   Clear
3:32 AM 51.4 °F 50.0 °F 95% 29.66 in 10.0 mi West 5.8 mph - N/A   Clear
3:53 AM 50.7 °F 49.1 °F 94% 29.66 in 10.0 mi West 8.1 mph - N/A   Clear
4:13 AM 50.9 °F 49.3 °F 94% 29.66 in 10.0 mi WNW 6.9 mph - N/A   Clear
4:32 AM 50.9 °F 49.1 °F 94% 29.66 in 10.0 mi WNW 5.8 mph - N/A   Clear
4:53 AM 50.5 °F 48.7 °F 94% 29.67 in 10.0 mi WNW 6.9 mph - N/A   Clear
5:13 AM 49.6 °F 47.7 °F 93% 29.67 in 10.0 mi West 6.9 mph - N/A   Clear
5:33 AM 49.5 °F 47.3 °F 92% 29.68 in 10.0 mi West 5.8 mph - N/A   Clear
5:53 AM 49.5 °F 47.5 °F 93% 29.68 in 10.0 mi West 6.9 mph - N/A   Clear
6:13 AM 49.5 °F 47.5 °F 93% 29.68 in 10.0 mi West 6.9 mph - N/A   Clear
6:33 AM 49.5 °F 47.3 °F 92% 29.68 in 10.0 mi West 6.9 mph - N/A   Clear
6:53 AM 49.5 °F 47.5 °F 93% 29.68 in 10.0 mi West 8.1 mph - N/A   Clear
7:33 AM 49.5 °F 47.7 °F 94% 29.68 in 10.0 mi WNW 6.9 mph - N/A   Clear
7:53 AM 49.5 °F 47.7 °F 94% 29.68 in 10.0 mi WNW 8.1 mph - N/A   Scattered Clouds
8:12 AM 49.5 °F 47.7 °F 94% 29.69 in 7.0 mi WNW 10.4 mph - N/A   Mostly Cloudy
8:33 AM 50.4 °F 48.6 °F 94% 29.69 in 7.0 mi NW 10.4 mph - N/A   Overcast
8:52 AM 52.0 °F 49.8 °F 92% 29.69 in 10.0 mi WNW 6.9 mph - N/A   Overcast
9:13 AM 52.0 °F 49.3 °F 90% 29.70 in 10.0 mi NW 12.7 mph 17.3 mph N/A   Overcast
9:33 AM 52.9 °F 49.3 °F 88% 29.70 in 10.0 mi WNW 13.8 mph 19.6 mph N/A   Overcast
9:53 AM 54.5 °F 50.4 °F 86% 29.70 in 10.0 mi WNW 10.4 mph - N/A   Overcast
10:13 AM 54.5 °F 49.5 °F 83% 29.70 in 10.0 mi WNW 15.0 mph 18.4 mph N/A   Overcast
10:32 AM 52.0 °F 46.9 °F 83% 29.70 in 10.0 mi West 17.3 mph 24.2 mph N/A   Overcast
10:53 AM 52.0 °F 46.6 °F 82% 29.70 in 10.0 mi West 15.0 mph 19.6 mph N/A   Overcast
11:13 AM 52.2 °F 46.8 °F 82% 29.70 in 10.0 mi WNW 11.5 mph 19.6 mph N/A   Overcast
11:32 AM 54.5 °F 48.4 °F 80% 29.70 in 10.0 mi WNW 18.4 mph 23.0 mph N/A   Overcast
11:53 AM 54.9 °F 46.8 °F 74% 29.69 in 10.0 mi WNW 15.0 mph 19.6 mph N/A   Mostly Cloudy
12:13 PM 54.5 °F 46.8 °F 75% 29.69 in 10.0 mi WNW 12.7 mph 19.6 mph N/A   Overcast
12:33 PM 57.2 °F 47.8 °F 71% 29.69 in 10.0 mi WNW 16.1 mph 23.0 mph N/A   Overcast
12:53 PM 57.2 °F 46.8 °F 68% 29.67 in 10.0 mi WNW 17.3 mph 26.5 mph N/A   Mostly Cloudy
1:13 PM 59.5 °F 46.6 °F 62% 29.66 in 10.0 mi WNW 15.0 mph 26.5 mph N/A   Scattered Clouds
1:33 PM 59.7 °F 45.9 °F 60% 29.66 in 10.0 mi WNW 18.4 mph 26.5 mph N/A   Scattered Clouds
1:52 PM 59.7 °F 45.5 °F 59% 29.65 in 10.0 mi WNW 17.3 mph 21.9 mph N/A   Scattered Clouds
2:13 PM 59.7 °F 44.6 °F 57% 29.65 in 10.0 mi WNW 16.1 mph 25.3 mph N/A   Scattered Clouds
2:32 PM 61.9 °F 44.6 °F 53% 29.65 in 10.0 mi NW 16.1 mph 25.3 mph N/A   Scattered Clouds
2:52 PM 62.6 °F 44.2 °F 51% 29.65 in 10.0 mi WNW 16.1 mph 20.7 mph N/A   Scattered Clouds
3:13 PM 62.1 °F 42.8 °F 49% 29.65 in 10.0 mi WNW 12.7 mph 24.2 mph N/A   Scattered Clouds
3:33 PM 62.2 °F 42.4 °F 48% 29.65 in 10.0 mi WNW 13.8 mph 23.0 mph N/A   Scattered Clouds
3:52 PM 62.6 °F 40.8 °F 45% 29.65 in 10.0 mi WNW 18.4 mph 23.0 mph N/A   Scattered Clouds
4:13 PM 62.1 °F 39.7 °F 44% 29.65 in 10.0 mi NW 20.7 mph 26.5 mph N/A   Clear
4:33 PM 62.1 °F 39.2 °F 43% 29.65 in 10.0 mi WNW 16.1 mph 26.5 mph N/A   Scattered Clouds
4:52 PM 62.1 °F 39.7 °F 44% 29.66 in 10.0 mi WNW 16.1 mph 21.9 mph N/A   Clear
5:12 PM 61.7 °F 40.5 °F 46% 29.65 in 10.0 mi WNW 12.7 mph 20.7 mph N/A   Clear
5:33 PM 59.7 °F 38.8 °F 46% 29.65 in 10.0 mi WNW 13.8 mph 18.4 mph N/A   Clear
5:53 PM 59.5 °F 40.8 °F 50% 29.65 in 10.0 mi WNW 11.5 mph 17.3 mph N/A   Clear
6:12 PM 59.0 °F 41.5 °F 52% 29.66 in 10.0 mi WNW 8.1 mph - N/A   Scattered Clouds
6:33 PM 57.2 °F 41.0 °F 55% 29.66 in 10.0 mi WNW 8.1 mph - N/A   Clear
6:53 PM 56.7 °F 41.7 °F 57% 29.66 in 10.0 mi WNW 9.2 mph - N/A   Clear
7:13 PM 54.5 °F 41.7 °F 62% 29.67 in 10.0 mi West 8.1 mph - N/A   Clear
7:33 PM 54.5 °F 42.4 °F 64% 29.67 in 10.0 mi West 9.2 mph - N/A   Mostly Cloudy
7:52 PM 54.5 °F 43.2 °F 66% 29.67 in 10.0 mi West 8.1 mph - N/A   Scattered Clouds
8:13 PM 54.5 °F 44.8 °F 70% 29.67 in 10.0 mi West 8.1 mph - N/A   Mostly Cloudy
9:13 PM 52.2 °F 43.2 °F 71% 29.68 in 10.0 mi West 9.2 mph - N/A   Scattered Clouds
9:33 PM 52.0 °F 42.3 °F 69% 29.67 in 10.0 mi West 8.1 mph - N/A   Scattered Clouds
9:53 PM 52.0 °F 42.1 °F 69% 29.67 in 10.0 mi West 8.1 mph - N/A   Mostly Cloudy
10:13 PM 52.0 °F 42.4 °F 70% 29.67 in 10.0 mi West 10.4 mph - N/A   Mostly Cloudy
10:33 PM 49.6 °F 41.9 °F 75% 29.67 in 10.0 mi West 10.4 mph - N/A   Mostly Cloudy
10:53 PM 50.9 °F 44.2 °F 78% 29.67 in 10.0 mi West 10.4 mph - N/A   Overcast
11:13 PM 49.5 °F 44.1 °F 82% 29.67 in 10.0 mi West 10.4 mph - N/A   Overcast
11:33 PM 49.5 °F 44.8 °F 84% 29.66 in 10.0 mi West 10.4 mph - N/A   Overcast
11:52 PM 49.5 °F 44.6 °F 83% 29.67 in 10.0 mi West 10.4 mph - N/A   Scattered Clouds